Home > Weather > Charleston > Past weeks

Flag for USA Past Weather in Charleston, South Carolina, USA — Yesterday and Last 2 Weeks

Now
77 °F

Passing clouds.


Feels Like: 78 °F
Forecast: 78 / 93 °F
Wind: No wind

Location: Charleston Air Force Base Reporting Station

Current Time: Jul 23, 2016 at 7:27:43 AM

Latest Report: Jul 23, 2016 at 6:56 AM


Visibility: 10 mi

Pressure: 30.01 "Hg

Humidity: 90%

Dew Point: 74 °F

Location of CharlestonLocation

Past Weather in Charleston — Graph

°F

Charleston Temperature Yesterday

Maximum temperature yesterday: 90 °F (at 12:56 PM)
Minimum temperature yesterday: 74 °F (at 2:56 AM)
Average temperature yesterday: 82 °F

High & Low Weather Summary for the Past Weeks

 TemperatureHumidityPressure
High99 °F (Jul 8, 3:56 PM)94% (Jul 17, 10:56 PM)30.27 "Hg (Jul 17, 10:56 PM)
Low74 °F (Jul 17, 1:56 PM)34% (Jul 11, 3:56 PM)29.91 "Hg (Jul 8, 5:56 PM)
Average84 °F72%30.08 "Hg
* Reported Jul 8 5:56 AM — Jul 23 5:56 AM, Charleston, Weather by CustomWeather, © 2016

Note: Actual official high and low records may vary slightly from our data, if they occured in-between our weather recording intervals... More about our weather records

Advertising

Charleston Weather History for the Previous 24 Hours

Scroll right to see more
 ConditionsComfort  
Time TempWeatherWind HumidityBarometerVisibility
5:56 AM
Sat, Jul 23
78 °FPassing clouds.No wind87%30.01 "Hg10 mi
4:56 AM78 °FClear.5 mph90%30.00 "Hg10 mi
3:56 AM78 °FClear.5 mph87%30.00 "Hg10 mi
2:56 AM79 °FClear.6 mph84%30.01 "Hg10 mi
1:56 AM78 °FPassing clouds.5 mph87%30.02 "Hg10 mi
12:56 AM79 °FPassing clouds.3 mph84%30.03 "Hg10 mi
11:56 PM
Fri, Jul 22
80 °FPassing clouds.6 mph81%30.03 "Hg10 mi
10:56 PM80 °FPassing clouds.7 mph81%30.04 "Hg10 mi
9:56 PM80 °FClear.7 mph81%30.03 "Hg10 mi
8:56 PM81 °FPassing clouds.6 mph77%30.03 "Hg10 mi
7:56 PM85 °FPassing clouds.7 mph68%30.01 "Hg10 mi
6:56 PM88 °FPassing clouds.10 mph63%30.00 "Hg10 mi
5:56 PM88 °FPassing clouds.9 mph67%30.01 "Hg10 mi
4:56 PM83 °FScattered clouds.5 mph72%30.03 "Hg10 mi
3:56 PM79 °FThunderstorms. Mostly cloudy.28 mph79%30.10 "Hg1 mi
2:56 PM90 °FBroken clouds.9 mph59%30.07 "Hg10 mi
1:56 PM90 °FBroken clouds.9 mph61%30.09 "Hg10 mi
12:56 PM90 °FBroken clouds.6 mph57%30.11 "Hg10 mi
11:56 AM88 °FBroken clouds.No wind57%30.11 "Hg10 mi
10:56 AM87 °FScattered clouds.8 mph65%30.11 "Hg10 mi
9:56 AM85 °FScattered clouds.No wind72%30.10 "Hg10 mi
8:56 AM83 °FScattered clouds.5 mph79%30.10 "Hg10 mi
7:56 AM79 °FScattered clouds.No wind88%30.10 "Hg10 mi
Weather by CustomWeather, © 2016

See weather overviewHow to use our weather pages